This is the latest recevied weather packets stored in our database for station/object N3UJJ-1. If no packets are shown the sender has not sent any weather packets the latest 10 day(s).
| Time | Temp. | Humidity | Pressure | Rain* | Wind** | Luminosity | Snow |
|---|---|---|---|---|---|---|---|
| 1778078776 | 16.11° C | 93% | 1010 hPa | 1.27 mm | - | - | - |
| 1778077876 | 16.67° C | 91% | 1009.9 hPa | 0.25 mm | - | - | - |
| 1778076975 | 16.67° C | 90% | 1010 hPa | 0.25 mm | - | - | - |
| 1778076075 | 17.22° C | 88% | 1010.2 hPa | 0 mm | - | - | - |
| 1778075175 | 17.78° C | 84% | 1010.2 hPa | 0 mm | - | - | - |
| 1778074275 | 18.33° C | 79% | 1010.3 hPa | 0 mm | - | - | - |
| 1778073375 | 18.33° C | 78% | 1010 hPa | 0 mm | - | - | - |
| 1778072475 | 18.89° C | 77% | 1009.8 hPa | 0 mm | - | - | - |
| 1778071574 | 18.89° C | 77% | 1009.6 hPa | 0 mm | - | - | - |
| 1778070674 | 18.89° C | 77% | 1009.8 hPa | 0 mm | - | - | - |
| 1778069774 | 18.89° C | 77% | 1010 hPa | 0 mm | - | - | - |
| 1778068874 | 18.89° C | 77% | 1010 hPa | 0 mm | - | - | - |
| 1778067974 | 18.89° C | 77% | 1009.8 hPa | 0 mm | - | - | - |
| 1778067073 | 18.89° C | 77% | 1009.6 hPa | 0 mm | - | - | - |
| 1778066173 | 18.89° C | 78% | 1009.3 hPa | 0 mm | - | - | - |
| 1778065273 | 18.33° C | 79% | 1009.3 hPa | 0 mm | - | - | - |
| 1778064373 | 18.33° C | 79% | 1009.3 hPa | 0 mm | - | - | - |
| 1778063473 | 18.33° C | 80% | 1009.3 hPa | 0 mm | - | - | - |
| 1778062572 | 18.33° C | 80% | 1009.3 hPa | 0 mm | - | - | - |
| 1778061672 | 18.33° C | 80% | 1009.3 hPa | 0 mm | - | - | - |
| 1778060772 | 18.33° C | 79% | 1009.3 hPa | 0 mm | - | - | - |
| 1778059872 | 18.33° C | 79% | 1009.4 hPa | 0 mm | - | - | - |
| 1778058971 | 18.33° C | 78% | 1009.5 hPa | 0 mm | - | - | - |
| 1778058071 | 18.89° C | 77% | 1009.5 hPa | 0 mm | - | - | - |
| 1778057171 | 18.89° C | 77% | 1009.4 hPa | 0 mm | - | - | - |
* Rain latest hour (hover to see other rain measurements)
** Current wind speed in m/s (hover to see current wind gust speed)